www.pogodaiklimat.ru

Погода и климат >> Архив погоды >> Гондурас >> Amapala


ПОГОДА в Amapala

  • Прогноз погоды в Amapala
  • Монитор погоды в Amapala
  • Климат города

АРХИВ ПОГОДЫ в Amapala

Время (UTC), дата Ветер
(напр.,м/с)
 
Видим.   Явления Облачность Т
(С)
Тd
(С)
f
(%)
Тe
(С)
Тes
(С)
Комфортность P
(гПа)
Po
(гПа)
Тmin
(С)
Tmax
(С)
R
(мм)
R24
(мм)
S
(см)
21 18.04 Ю 5 20 км 3/1 960 м
[Cb cap Ci fib]
+34.2 +24.3 56 +46 +51 опасность
перегрева
1011.4 1010.9
00 19.04 ЮЗ 6 20 км 3/1 900 м
[Cu med, cong Ci fib]
+30.4 +25.9 77 +45 +45 опасность
перегрева
1010.5 1010.0 +25.5 +36.0
12 19.04 СВ 2 10 км 6/0
[Cs]
+27.0 +24.3 85 +38 +38 очень
душно
1013.7 1013.2 +26.4 +36.0
15 19.04 СВ 2 20 км ясно +32.6 +22.9 57 +43 +55 опасность
перегрева
1014.2 1013.7
18 19.04 ЮЗ 2 20 км 1/1 960 м
[Cu hum]
+35.0 +21.7 46 +43 +63 опасность
перегрева
1013.1 1012.6 +26.4 +35.0
21 19.04 ЮЗ 5 20 км 1/1 960 м
[Cu hum]
+33.4 +22.4 53 +43 +48 опасность
перегрева
1010.3 1009.8
00 20.04 ЮЗ 4 20 км 3/3 900 м
[Cu med, cong]
+30.2 +24.2 70 +42 +42 опасность
перегрева
1010.1 1009.6 +26.4 +37.2
12 20.04 штиль 0 20 км 9/0
[Ac trans Cs]
+26.4 +24.2 88 +37 +37 очень
душно
1013.0 1012.5 +26.0 +37.2
15 20.04 СВ 1 20 км 9/1 750 м
[Cu hum Cs]
+29.2 +24.6 76 +41 +52 опасность
перегрева
1015.9 1015.4
18 20.04 З 1 20 км 9/1 900 м
[Cu hum Cs]
+31.2 +24.5 68 +44 +63 опасность
перегрева
1014.8 1014.3 +26.0 +31.2
21 20.04 Ю 3 20 км 9/1 750 м
[Cu hum Cs]
+33.6 +23.3 55 +44 +51 опасность
перегрева
1011.3 1010.8
00 21.04 Ю 3 20 км 8/1 540 м
[Sc diur, vesp Ci]
+29.2 +24.9 78 +42 +42 опасность
перегрева
1010.6 1010.1 +26.0 +34.5
12 21.04 Ю 1 20 км 1/0
[Ac trans]
+27.2 +24.2 84 +38 +38 очень
душно
1012.8 1012.3 +26.4 +36.5
15 21.04 СВ 2 20 км 3/3 900 м
[Cu med, cong]
+30.6 +24.1 68 +42 +51 опасность
перегрева
1013.6 1013.1
18 21.04 ЮЗ 2 20 км 1/1 960 м
[Cu hum]
+33.8 +23.2 54 +44 +64 опасность
перегрева
1012.7 1012.2 +26.4 +33.8
21 21.04 ЮЗ 5 20 км 1/1 960 м
[Cu hum]
+33.8 +23.8 56 +45 +50 опасность
перегрева
1009.7 1009.2
00 22.04 ЮЗ 5 20 км 3/1 900 м
[Cu hum Ci fib]
+30.2 +24.8 73 +43 +43 опасность
перегрева
1010.0 1009.5 +26.4 +35.6
12 22.04 штиль 0 20 км ясно +25.8 +23.9 89 +35 +36 очень
душно
1011.8 1011.3 +25.5 +35.6
15 22.04 штиль 0 20 км 3/3 750 м
[Cu med, cong]
+29.8 +25.5 78 +44 +56 опасность
перегрева
1013.9 1013.4
18 22.04 ЮЗ 3 20 км 1/1 900 м
[Cu hum]
+33.8 +25.0 60 +47 +64 опасность
перегрева
1012.3 1011.8 +25.5 +33.8
21 22.04 Ю 5 20 км 1/1 900 м
[Cu hum]
+33.8 +25.0 60 +47 +52 опасность
перегрева
1010.3 1009.8
00 23.04 Ю 4 20 км ясно +30.4 +24.5 71 +43 +43 опасность
перегрева
1009.2 1008.7 +25.5 +36.6
12 23.04 штиль 0 20 км 1/0
[Ci fib]
+25.6 +11.5 41 +27 +27 жарко 1012.0 1012.0 +25.0 +36.6
15 23.04 СВ 2 10 км 3/1 900 м
[Cu hum Ci fib]
+30.6 +23.5 66 +41 +52 опасность
перегрева
1013.5 1013.0
18 23.04 ЮЗ 3 20 км ясно +34.2 +22.4 50 +43 +61 опасность
перегрева
1012.4 1011.9 +25.0 +34.2
21 23.04 ЮЗ 6 20 км ясно +33.0 +23.2 56 +43 +47 опасность
перегрева
1009.3 1008.8
00 24.04 ЮЗ 4 20 км 3/1 900 м
[Cu hum Ac trans]
+30.4 +24.9 72 +43 +43 опасность
перегрева
1009.5 1009.0 +25.0 +35.5
12 24.04 штиль 0 20 км 9/0
[Ac As]
+28.4 +25.7 85 +42 +42 опасность
перегрева
1011.7 1011.2 +28.0 +35.5
15 24.04 СВ 2 20 км 4/0
[Ac trans]
+32.2 +24.4 63 +44 +54 опасность
перегрева
1013.5 1013.0
18 24.04 ЮЗ 3 20 км 3/1 900 м
[Cu hum Ac trans]
+36.6 +24.3 49 +48 +63 опасность
перегрева
1011.7 1011.2 +28.0 +36.6
21 24.04 Ю 5 20 км 8/0
[Ac trans]
+33.6 +26.8 68 +51 +54 опасность
перегрева
1010.3 1009.8
00 25.04 ЮЗ 2 20 км 8/0
[Ac trans Cs]
+30.8 +26.0 76 +46 +46 опасность
перегрева
1010.1 1009.6 +28.0 +37.0

 

Местоположение метеостанции Amapala (Гондурас): широта 13.27 долгота -87.65 высота над уровнем моря 5 м.

В архиве по умолчанию представлена погода в Amapala за последнюю неделю. Архивные данные за месяц целиком и за предыдущие месяцы, начиная с января 2011 года, Вы можете получить, выбрав интересующий диапазон дат из раскрывающегося списка и нажав кнопку "Ввод!".

Внимание! Время в таблицах - всемирное. Для получения местного времени необходимо прибавить поправку, которая в Amapala равна -6 ч.

Смотрите также архив погоды в соседних городах и на ближайших метеорологических станциях:

Погода в Choluteca (Гондурас) (51 км)
Погода в Chinandega (Никарагуа) (91 км)
Погода в Tegucigalpa (Гондурас) (99 км)
Погода в La Esperanza (Гондурас) (129 км)
Погода в Jinotega (Никарагуа) (182 км)
Погода в Managua (Никарагуа) (203 км)
Погода в Santa Rosa De Copan (Гондурас) (208 км)
Погода в Nueva Ocotepeque (Гондурас) (210 км)
Погода в Yoro (Гондурас) (219 км)
Погода в La Mesa (Гондурас) (244 км)

Пояснения к столбцам:

Ветер - указаны скорость ветра в м/с - средняя за 10 мин, порывы в срок и между сроками (в фигурных скобках) и направление, откуда дует ветер: С - северный, СВ - северо-восточный, В - восточный, ЮВ - юго-восточный, Ю - южный, ЮЗ - юго-западный, З - западный, СЗ - северо-западный.
Видимость - горизонтальная дальность видимости в метрах или километрах. При видимости от 1 до 10 км при отсутствии осадков обычно наблюдается дымка, при ухудшении видимости до 1 км и менее - туман. В сухую погоду видимость может ухудшаться дымом, пылью или мглою.
Явления - указаны атмосферные явления, наблюдавшиеся в срок или в последний час перед сроком; фигурными скобками обозначены явления, наблюдавшиеся между сроками (за 1-3 часа до срока); квадратными скобками обозначены град или гололедные отложения с указанием их диаметра в мм.
Облачность - указаны через наклонную черту общая и нижняя облачность в баллах и высота нижней границы облаков в метрах; квадратными скобками обозначены формы облаков: Ci - перистые, Cs - перисто-слоистые, Cc - перисто-кучевые, Ac - высококучевые, As - высокослоистые, Sc - слоисто-кучевые, Ns - слоисто-дождевые, Cu - кучевые, Cb - кучево-дождевые. Подробнее классификацию облаков см. в Атласе облаков (PDF).
T - Температура воздуха - температура, измеренная на высоте 2 м над землей.
Td - Температура точки росы - температура, при понижении до которой содержащийся в воздухе водяной пар достигнет насыщения.
f - Относительная влажность воздуха - влажноcть воздуха, измеренная на высоте 2 м над землей.
Te - Эффективная температура - температура, которую ощущает одетый по сезону человек в тени. Характеристика душности погоды. При расчете учитывается влияние влажности воздуха и скорости ветра на теплоощущения человека.
Tes - Эффективная температура на солнце - температура, которую ощущает человек, с поправкой на солнечный нагрев. Характеристика знойности погоды. Зависит от высоты солнца над горизонтом, облачности и скорости ветра. Ночью, в пасмурную погоду, а также при ветре 12 м/с и более поправка равна нулю.
P - Атмосферное давление - приведенное к уровню моря атмосферное давление.
Po - Атмосферное давление - измеренное на уровне метеостанции атмосферное давление.
Tmin - Минимальная температура - минимум температуры воздуха на высоте 2 м над землей.
Tmax - Максимальная температура - максимум температуры воздуха на высоте 2 м над землей.
R - Количество осадков - Количество выпавших осадков за период времени, мм. При наведении курсора мыши на число - период времени, за который выпало указанное количество осадков.
R24 - Количество осадков - Количество выпавших осадков за 24 часа, мм.
S - Снежный покров - Высота снежного покрова, см. При наведении курсора мыши на число - состояние снежного покрова и степень покрытия местности в баллах.